FW7618 Weather Reports


time (UTC)temp
F
wind
direction
speed
knots
gust
knots
rain 1hr
in
rain 24hr
in
rain mn
in
humidity
%
barometer
mb
20260509024542 59 0 0.0 0.9 0.00 0.01 0.01 76 1010.7
20260509023041 59 0 0.0 0.0 0.00 0.01 0.01 74 1010.3
20260509021538 60 0 0.0 0.0 0.00 0.01 0.01 73 1010.2
20260509020038 61 0 0.0 0.0 0.00 0.01 0.01 71 1010.0
20260509014542 63 0 0.0 3.5 0.00 0.01 0.01 66 1010.1
20260509013042 63 87 0.9 3.5 0.00 0.01 0.01 61 1010.1
20260509011538 64 0 0.0 0.0 0.00 0.01 0.01 59 1010.1
20260509010037 64 0 0.0 0.0 0.00 0.01 0.01 56 1010.0
20260509004545 65 0 0.0 0.0 0.00 0.01 0.01 52 1009.5
20260509003044 65 0 0.0 1.7 0.00 0.01 0.01 53 1009.4
20260509001542 65 0 0.0 0.9 0.00 0.01 0.01 52 1009.6
20260509000040 65 0 0.0 3.5 0.00 0.01 0.01 53 1009.5
20260508234537 65 0 0.0 3.5 0.00 0.01 0.01 52 1009.5
20260508233106 65 0 0.0 1.7 0.00 0.01 0.01 54 1009.5
20260508231631 66 0 0.0 3.5 0.00 0.01 0.01 54 1009.6
20260508230054 66 46 0.0 4.3 0.00 0.01 0.01 50 1009.4
20260508224542 67 0 0.0 4.3 0.00 0.01 0.01 49 1009.4
20260508223048 67 0 0.0 3.5 0.00 0.01 0.01 48 1009.2
20260508221543 67 37 0.0 5.2 0.00 0.01 0.01 49 1009.2
20260508220044 67 0 0.0 2.6 0.00 0.01 0.01 48 1009.3
20260508214610 67 0 0.9 5.2 0.00 0.01 0.01 48 1009.2
20260508213048 68 94 0.0 5.2 0.00 0.01 0.01 47 1009.4
20260508211549 68 49 1.7 6.1 0.00 0.01 0.01 45 1009.4
20260508210052 67 94 0.0 7.0 0.00 0.01 0.01 48 1009.8
20260508204545 67 0 0.0 5.2 0.00 0.01 0.01 46 1010.1
20260508203041 68 87 0.9 6.1 0.00 0.01 0.01 45 1010.4
20260508201547 68 98 0.9 5.2 0.00 0.01 0.01 46 1010.5
20260508200038 68 0 0.9 8.7 0.00 0.01 0.01 47 1010.5
20260508194534 68 103 2.6 6.1 0.00 0.01 0.01 44 1010.6
20260508193051 68 72 0.0 5.2 0.00 0.01 0.01 44 1010.8
20260508191543 70 0 0.0 9.6 0.00 0.01 0.01 44 1010.9
20260508190042 71 0 1.7 6.1 0.00 0.01 0.01 42 1011.1
20260508184540 70 63 0.9 7.0 0.00 0.01 0.01 40 1011.4
20260508183035 69 99 1.7 6.1 0.00 0.01 0.01 42 1011.5
20260508181537 69 19 0.9 7.8 0.00 0.01 0.01 44 1011.8
20260508180043 68 98 2.6 8.7 0.00 0.01 0.01 43 1012.1
20260508174542 68 82 1.7 7.0 0.00 0.01 0.01 44 1012.2
20260508173039 67 88 3.5 7.8 0.00 0.01 0.01 44 1012.4
20260508171538 67 22 1.7 7.8 0.00 0.01 0.01 47 1012.9
20260508170033 68 89 1.7 8.7 0.00 0.01 0.01 48 1013.2
20260508164544 67 92 2.6 7.0 0.00 0.01 0.01 48 1013.5
20260508163042 67 0 1.7 7.0 0.00 0.01 0.01 46 1013.7
20260508161543 66 352 1.7 4.3 0.00 0.01 0.01 50 1013.7
20260508160037 65 100 3.5 7.8 0.00 0.01 0.01 49 1014.0
20260508154533 64 64 3.5 7.8 0.00 0.01 0.01 49 1014.2
20260508153043 64 82 0.9 7.0 0.00 0.01 0.01 53 1014.5
20260508151542 63 91 1.7 7.0 0.00 0.01 0.01 53 1014.5
20260508150040 62 5 0.9 5.2 0.00 0.01 0.01 54 1014.7
20260508144537 61 88 1.7 7.0 0.00 0.01 0.01 54 1014.8
20260508143046 60 11 0.9 7.8 0.00 0.01 0.01 56 1014.7
20260508141540 59 69 1.7 7.8 0.01 0.01 0.01 55 1014.9
20260508140043 58 96 0.9 6.1 0.01 0.01 0.01 56 1015.0
20260508134542 57 89 0.9 5.2 0.01 0.01 0.01 58 1015.1
20260508133037 55 0 0.9 3.5 0.01 0.01 0.01 61 1015.1
20260508131545 53 0 0.0 3.5 0.00 0.00 0.00 64 1015.1
20260508130043 52 61 0.0 3.5 0.00 0.00 0.00 67 1015.0
20260508124542 51 348 0.0 3.5 0.00 0.00 0.00 68 1014.9
20260508123040 50 0 0.0 4.3 0.00 0.00 0.00 70 1015.0
20260508121542 49 0 0.0 3.5 0.00 0.00 0.00 69 1015.0
20260508120045 49 0 0.0 3.5 0.00 0.00 0.00 70 1014.9
20260508114551 49 0 0.9 2.6 0.00 0.00 0.00 70 1014.7
20260508113044 49 0 0.0 2.6 0.00 0.00 0.00 69 1014.7
20260508111557 49 0 0.0 2.6 0.00 0.00 0.00 69 1014.4
20260508110043 49 20 0.0 1.7 0.00 0.00 0.00 69 1014.3
20260508104541 49 0 0.0 1.7 0.00 0.00 0.00 69 1014.5
20260508103045 48 0 0.0 0.0 0.00 0.00 0.00 70 1014.5
20260508101542 48 0 0.0 1.7 0.00 0.00 0.00 70 1014.4
20260508100047 48 0 0.0 0.9 0.00 0.00 0.00 70 1014.4
20260508094537 48 0 0.0 0.9 0.00 0.01 0.00 69 1014.5
20260508093043 47 0 0.0 0.9 0.00 0.01 0.00 69 1014.5
20260508091555 47 0 0.0 0.0 0.00 0.01 0.00 69 1014.5
20260508090045 47 0 0.0 1.7 0.00 0.01 0.00 69 1014.5
20260508084542 47 5 0.0 1.7 0.00 0.01 0.00 69 1014.4
20260508083047 47 0 0.0 0.0 0.00 0.01 0.00 68 1014.3
20260508081546 47 0 0.0 0.0 0.00 0.01 0.00 67 1014.3
20260508080035 47 0 0.0 0.0 0.00 0.01 0.00 67 1014.2
20260508074538 47 0 0.0 0.0 0.00 0.01 0.00 66 1014.3
20260508073033 48 0 0.0 0.0 0.00 0.01 0.00 66 1014.2
20260508071538 48 0 0.0 0.0 0.00 0.01 0.00 66 1014.4
20260508070047 48 0 0.0 1.7 0.00 0.01 0.00 65 1014.4
20260508064543 48 0 0.0 0.0 0.00 0.01 0.00 65 1014.6
20260508063044 48 0 0.0 0.0 0.00 0.01 0.00 65 1014.9
20260508061541 48 0 0.0 1.7 0.00 0.01 0.00 66 1015.0
20260508060042 48 0 0.0 0.9 0.00 0.01 0.00 65 1015.0
20260508054543 48 0 0.0 0.9 0.00 0.01 0.00 65 1015.0
20260508053047 49 0 0.0 1.7 0.00 0.01 0.00 65 1015.1
20260508051546 49 0 0.0 0.0 0.00 0.01 0.00 64 1014.9
20260508050045 49 0 0.0 2.6 0.00 0.01 0.00 63 1014.8
20260508044539 50 0 0.0 1.7 0.00 0.01 0.00 62 1015.0
20260508043040 50 0 0.0 0.0 0.00 0.01 0.00 62 1014.8
20260508041536 50 0 0.0 0.0 0.00 0.01 0.00 61 1014.8
20260508040040 51 0 0.0 0.0 0.00 0.01 0.00 59 1014.6
20260508034548 51 0 0.0 2.6 0.00 0.01 0.01 60 1014.6
20260508033037 51 0 0.0 0.9 0.00 0.01 0.01 59 1014.6
20260508031536 51 0 0.0 0.0 0.00 0.01 0.01 58 1014.7
20260508030043 50 0 0.0 0.0 0.00 0.01 0.01 59 1014.7